QPF
0.39 0.39 0.38 0.34 0.28 0.22 0.17 0.12 0.07 0.03 0.01 0.00 0.00 0.00 0.00 0.00 0.00 0.00 0.00 0.00 0.00 0.00 0.01 0.01 0.03 0.05 0.08 0.10 0.12 0.13 0.11 0.09 0.05 0.04 0.03 0.02 0.02 0.02 0.02 0.01 0.00 0.00 0.00
0.32 0.34 0.33 0.27 0.21 0.19 0.15 0.09 0.05 0.03 0.01 0.00 0.00 0.00 0.00 0.00 0.00 0.00 0.00 0.00 0.00 0.00 0.00 0.01 0.03 0.05 0.07 0.09 0.11 0.11 0.10 0.07 0.06 0.05 0.05 0.03 0.03 0.03 0.03 0.02 0.01 0.01 0.00
0.26 0.26 0.23 0.22 0.19 0.17 0.12 0.07 0.04 0.02 0.01 0.01 0.00 0.00 0.00 0.00 0.00 0.00 0.00 0.00 0.00 0.00 0.00 0.00 0.01 0.03 0.05 0.09 0.10 0.12 0.12 0.12 0.10 0.09 0.08 0.07 0.06 0.04 0.03 0.03 0.02 0.02 0.01
0.23 0.21 0.18 0.15 0.15 0.13 0.08 0.05 0.04 0.03 0.03 0.02 0.02 0.01 0.01 0.01 0.01 0.00 0.00 0.00 0.00 0.00 0.00 0.00 0.00 0.01 0.02 0.05 0.07 0.10 0.13 0.17 0.17 0.14 0.10 0.10 0.08 0.05 0.03 0.03 0.04 0.02 0.02
0.20 0.19 0.15 0.12 0.12 0.09 0.06 0.05 0.05 0.04 0.04 0.03 0.03 0.03 0.03 0.03 0.03 0.02 0.02 0.01 0.01 0.01 0.00 0.00 0.00 0.00 0.00 0.01 0.02 0.05 0.09 0.14 0.17 0.20 0.21 0.18 0.13 0.10 0.07 0.05 0.05 0.05 0.03
0.10 0.10 0.09 0.07 0.07 0.06 0.05 0.04 0.04 0.04 0.03 0.04 0.05 0.06 0.06 0.05 0.08 0.05 0.03 0.02 0.01 0.01 0.02 0.00 0.00 0.00 0.00 0.01 0.01 0.01 0.03 0.06 0.10 0.13 0.17 0.18 0.16 0.16 0.15 0.12 0.08 0.06 0.06
0.03 0.03 0.03 0.03 0.02 0.02 0.02 0.02 0.02 0.03 0.03 0.03 0.04 0.05 0.06 0.07 0.07 0.03 0.03 0.04 0.05 0.05 0.04 0.02 0.01 0.00 0.00 0.01 0.00 0.00 0.00 0.00 0.01 0.05 0.08 0.11 0.13 0.14 0.15 0.14 0.12 0.10 0.09
0.00 0.00 0.00 0.00 0.00 0.00 0.00 0.00 0.01 0.01 0.01 0.01 0.02 0.02 0.03 0.04 0.04 0.03 0.03 0.06 0.11 0.10 0.06 0.03 0.03 0.01 0.01 0.00 0.00 0.00 0.01 0.00 0.00 0.01 0.03 0.05 0.06 0.10 0.14 0.17 0.19 0.18 0.15
0.00 0.00 0.00 0.00 0.00 0.00 0.00 0.00 0.00 0.00 0.00 0.00 0.00 0.01 0.01 0.01 0.02 0.02 0.03 0.08 0.13 0.15 0.09 0.05 0.04 0.03 0.03 0.01 0.00 0.02 0.02 0.01 0.00 0.00 0.00 0.01 0.01 0.03 0.07 0.12 0.17 0.20 0.20
0.00 0.00 0.00 0.00 0.00 0.00 0.00 0.00 0.00 0.00 0.00 0.00 0.00 0.00 0.00 0.00 0.01 0.01 0.02 0.06 0.11 0.14 0.10 0.07 0.09 0.08 0.06 0.02 0.01 0.02 0.04 0.03 0.01 0.01 0.01 0.01 0.02 0.03 0.04 0.09 0.13 0.16 0.19
0.00 0.00 0.00 0.00 0.00 0.00 0.00 0.00 0.00 0.00 0.00 0.00 0.00 0.00 0.00 0.00 0.00 0.01 0.02 0.03 0.06 0.09 0.10 0.09 0.06 0.08 0.06 0.04 0.03 0.02 0.04 0.02 0.02 0.03 0.02 0.02 0.03 0.04 0.05 0.07 0.09 0.11 0.13
0.00 0.00 0.00 0.00 0.00 0.00 0.00 0.00 0.00 0.00 0.00 0.00 0.00 0.00 0.00 0.00 0.00 0.00 0.01 0.01 0.02 0.05 0.05 0.05 0.04 0.06 0.04 0.03 0.02 0.02 0.04 0.02 0.02 0.04 0.04 0.04 0.04 0.03 0.03 0.03 0.03 0.05 0.07
0.00 0.00 0.00 0.00 0.00 0.00 0.00 0.00 0.00 0.00 0.00 0.00 0.00 0.00 0.00 0.00 0.00 0.00 0.00 0.01 0.01 0.01 0.01 0.02 0.02 0.03 0.03 0.03 0.02 0.03 0.03 0.02 0.03 0.05 0.04 0.03 0.02 0.01 0.01 0.01 0.01 0.01 0.02
0.00 0.00 0.00 0.00 0.00 0.00 0.00 0.00 0.00 0.00 0.00 0.00 0.00 0.01 0.00 0.01 0.00 0.00 0.00 0.00 0.01 0.01 0.01 0.01 0.01 0.02 0.02 0.03 0.03 0.03 0.03 0.03 0.04 0.04 0.03 0.02 0.01 0.02 0.01 0.01 0.01 0.02 0.03
0.00 0.00 0.00 0.00 0.00 0.00 0.00 0.00 0.00 0.00 0.00 0.00 0.00 0.01 0.01 0.00 0.00 0.00 0.00 0.01 0.01 0.01 0.01 0.02 0.02 0.03 0.03 0.03 0.02 0.02 0.02 0.02 0.03 0.02 0.02 0.02 0.02 0.03 0.02 0.01 0.01 0.01 0.02
0.00 0.00 0.00 0.00 0.00 0.00 0.00 0.00 0.00 0.00 0.00 0.00 0.00 0.00 0.00 0.00 0.00 0.00 0.01 0.01 0.01 0.01 0.04 0.05 0.05 0.04 0.03 0.03 0.02 0.01 0.01 0.01 0.02 0.02 0.02 0.02 0.02 0.02 0.02 0.01 0.01 0.01 0.02
0.00 0.00 0.00 0.00 0.00 0.00 0.00 0.00 0.00 0.00 0.00 0.00 0.00 0.00 0.00 0.00 0.00 0.00 0.01 0.01 0.01 0.03 0.05 0.05 0.05 0.05 0.03 0.02 0.02 0.01 0.01 0.01 0.01 0.01 0.02 0.02 0.01 0.01 0.01 0.01 0.01 0.01 0.01
0.00 0.00 0.00 0.00 0.00 0.00 0.00 0.00 0.00 0.01 0.01 0.01 0.00 0.00 0.00 0.00 0.00 0.01 0.01 0.01 0.01 0.02 0.02 0.03 0.03 0.04 0.04 0.02 0.02 0.03 0.02 0.01 0.01 0.01 0.02 0.02 0.01 0.01 0.01 0.01 0.02 0.01 0.01
0.00 0.00 0.00 0.00 0.00 0.00 0.00 0.00 0.00 0.00 0.00 0.00 0.00 0.00 0.00 0.00 0.00 0.01 0.01 0.01 0.01 0.01 0.01 0.01 0.03 0.04 0.03 0.02 0.02 0.02 0.01 0.01 0.01 0.02 0.03 0.04 0.03 0.02 0.01 0.01 0.01 0.01 0.01
0.00 0.00 0.00 0.00 0.00 0.00 0.00 0.00 0.00 0.00 0.00 0.00 0.00 0.00 0.00 0.00 0.00 0.01 0.01 0.01 0.01 0.01 0.01 0.01 0.01 0.01 0.01 0.01 0.01 0.01 0.01 0.00 0.01 0.01 0.01 0.02 0.01 0.01 0.01 0.01 0.01 0.01 0.01
0.00 0.00 0.00 0.00 0.00 0.00 0.00 0.00 0.00 0.00 0.00 0.00 0.00 0.00 0.00 0.00 0.00 0.01 0.01 0.01 0.01 0.01 0.01 0.01 0.00 0.00 0.00 0.00 0.00 0.00 0.00 0.00 0.00 0.00 0.00 0.01 0.01 0.01 0.01 0.01 0.01 0.01 0.01
0.00 0.00 0.00 0.00 0.00 0.00 0.00 0.00 0.00 0.00 0.00 0.00 0.00 0.00 0.00 0.00 0.00 0.01 0.01 0.00 0.00 0.00 0.00 0.00 0.00 0.00 0.00 0.00 0.00 0.00 0.00 0.00 0.00 0.00 0.00 0.01 0.01 0.01 0.01 0.00 0.00 0.00 0.00
0.00 0.00 0.00 0.00 0.00 0.00 0.00 0.00 0.00 0.00 0.00 0.00 0.00 0.00 0.00 0.00 0.00 0.00 0.00 0.00 0.00 0.00 0.00 0.00 0.00 0.00 0.00 0.00 0.00 0.00 0.00 0.00 0.00 0.00 0.00 0.01 0.00 0.00 0.00 0.00 0.00 0.00 0.00
0.00 0.00 0.00 0.00 0.00 0.00 0.00 0.00 0.00 0.00 0.00 0.00 0.00 0.00 0.00 0.00 0.00 0.00 0.00 0.00 0.00 0.00 0.00 0.00 0.00 0.00 0.00 0.00 0.00 0.00 0.00 0.00 0.00 0.00 0.00 0.00 0.00 0.00 0.00 0.00 0.00 0.00 0.00
0.00 0.00 0.00 0.00 0.00 0.00 0.00 0.00 0.00 0.00 0.00 0.00 0.00 0.00 0.00 0.00 0.00 0.00 0.00 0.00 0.00 0.00 0.00 0.00 0.00 0.00 0.00 0.00 0.00 0.00 0.00 0.00 0.00 0.00 0.00 0.00 0.00 0.00 0.00 0.00 0.00 0.00 0.00
0.00 0.00 0.00 0.00 0.00 0.00 0.00 0.00 0.00 0.00 0.00 0.00 0.00 0.00 0.00 0.00 0.00 0.00 0.00 0.00 0.00 0.00 0.00 0.00 0.00 0.00 0.00 0.00 0.00 0.00 0.00 0.00 0.00 0.00 0.00 0.00 0.00 0.00 0.00 0.00 0.00 0.00 0.00
MSLP
1012.61 1012.68 1012.75 1012.80 1012.80 1012.76 1012.68 1012.58 1012.49 1012.43 1012.43 1012.49 1012.63 1012.82 1013.05 1013.29 1013.51 1013.70 1013.84 1013.92 1013.96 1013.97 1013.98 1014.00 1014.06 1014.17 1014.32 1014.51 1014.73 1014.95 1015.15 1015.29 1015.37 1015.39 1015.33 1015.24 1015.12 1015.02 1014.98 1015.02 1015.16 1015.40 1015.73
1012.98 1012.95 1012.92 1012.87 1012.80 1012.70 1012.59 1012.47 1012.38 1012.33 1012.35 1012.43 1012.58 1012.78 1013.01 1013.24 1013.45 1013.61 1013.73 1013.79 1013.81 1013.80 1013.78 1013.78 1013.81 1013.89 1014.02 1014.19 1014.39 1014.60 1014.79 1014.95 1015.06 1015.09 1015.07 1015.00 1014.90 1014.81 1014.75 1014.75 1014.84 1015.01 1015.27
1013.23 1013.13 1013.03 1012.93 1012.82 1012.69 1012.56 1012.45 1012.37 1012.34 1012.37 1012.46 1012.61 1012.79 1013.00 1013.20 1013.37 1013.51 1013.59 1013.62 1013.62 1013.59 1013.56 1013.54 1013.56 1013.62 1013.73 1013.89 1014.07 1014.28 1014.47 1014.64 1014.77 1014.85 1014.86 1014.83 1014.76 1014.69 1014.62 1014.60 1014.63 1014.73 1014.91
1013.46 1013.31 1013.18 1013.05 1012.92 1012.79 1012.67 1012.57 1012.50 1012.48 1012.52 1012.60 1012.72 1012.87 1013.03 1013.18 1013.30 1013.38 1013.42 1013.42 1013.39 1013.35 1013.31 1013.30 1013.31 1013.36 1013.47 1013.61 1013.78 1013.98 1014.17 1014.36 1014.51 1014.63 1014.69 1014.71 1014.69 1014.65 1014.59 1014.55 1014.55 1014.58 1014.67
1013.73 1013.57 1013.43 1013.29 1013.16 1013.04 1012.93 1012.85 1012.79 1012.78 1012.80 1012.85 1012.93 1013.03 1013.12 1013.19 1013.24 1013.26 1013.24 1013.21 1013.16 1013.10 1013.07 1013.05 1013.07 1013.13 1013.23 1013.36 1013.52 1013.70 1013.89 1014.08 1014.26 1014.41 1014.52 1014.60 1014.63 1014.63 1014.61 1014.58 1014.55 1014.53 1014.55
1014.10 1013.95 1013.82 1013.69 1013.57 1013.46 1013.36 1013.28 1013.23 1013.20 1013.19 1013.20 1013.22 1013.24 1013.25 1013.24 1013.21 1013.16 1013.09 1013.01 1012.94 1012.88 1012.85 1012.84 1012.87 1012.93 1013.02 1013.14 1013.29 1013.45 1013.62 1013.81 1013.99 1014.16 1014.31 1014.44 1014.54 1014.60 1014.62 1014.61 1014.58 1014.54 1014.50
1014.57 1014.45 1014.33 1014.22 1014.11 1014.01 1013.91 1013.83 1013.76 1013.70 1013.66 1013.62 1013.57 1013.51 1013.44 1013.34 1013.23 1013.11 1012.98 1012.87 1012.78 1012.72 1012.69 1012.69 1012.73 1012.80 1012.88 1012.98 1013.10 1013.23 1013.37 1013.53 1013.70 1013.87 1014.05 1014.22 1014.37 1014.49 1014.57 1014.61 1014.60 1014.57 1014.51
1015.12 1015.02 1014.93 1014.83 1014.73 1014.62 1014.52 1014.43 1014.34 1014.25 1014.16 1014.06 1013.95 1013.82 1013.67 1013.50 1013.32 1013.13 1012.96 1012.82 1012.71 1012.64 1012.62 1012.63 1012.68 1012.74 1012.82 1012.90 1012.98 1013.06 1013.16 1013.28 1013.41 1013.57 1013.75 1013.94 1014.13 1014.30 1014.44 1014.54 1014.58 1014.57 1014.52
1015.66 1015.59 1015.51 1015.42 1015.32 1015.22 1015.11 1015.00 1014.89 1014.77 1014.65 1014.51 1014.35 1014.16 1013.95 1013.72 1013.48 1013.25 1013.04 1012.87 1012.74 1012.67 1012.65 1012.67 1012.72 1012.78 1012.84 1012.90 1012.94 1012.98 1013.02 1013.08 1013.17 1013.29 1013.45 1013.65 1013.86 1014.06 1014.25 1014.40 1014.50 1014.54 1014.53
1016.12 1016.07 1016.00 1015.92 1015.83 1015.73 1015.62 1015.50 1015.38 1015.25 1015.11 1014.95 1014.76 1014.53 1014.28 1014.01 1013.73 1013.46 1013.22 1013.02 1012.88 1012.80 1012.78 1012.80 1012.85 1012.91 1012.96 1013.00 1013.01 1013.00 1012.99 1013.00 1013.03 1013.10 1013.22 1013.39 1013.60 1013.82 1014.04 1014.24 1014.39 1014.48 1014.51
1016.44 1016.40 1016.36 1016.29 1016.21 1016.12 1016.02 1015.91 1015.80 1015.68 1015.54 1015.37 1015.17 1014.93 1014.66 1014.37 1014.06 1013.76 1013.49 1013.27 1013.11 1013.02 1012.99 1013.01 1013.05 1013.11 1013.16 1013.18 1013.17 1013.13 1013.08 1013.04 1013.01 1013.03 1013.11 1013.24 1013.42 1013.64 1013.87 1014.09 1014.27 1014.41 1014.48
1016.60 1016.58 1016.55 1016.51 1016.45 1016.38 1016.31 1016.23 1016.15 1016.05 1015.93 1015.79 1015.60 1015.37 1015.09 1014.78 1014.46 1014.14 1013.84 1013.59 1013.41 1013.29 1013.25 1013.25 1013.30 1013.36 1013.41 1013.43 1013.42 1013.37 1013.30 1013.22 1013.15 1013.12 1013.14 1013.22 1013.36 1013.55 1013.77 1013.99 1014.19 1014.34 1014.44
1016.62 1016.62 1016.62 1016.60 1016.58 1016.55 1016.52 1016.49 1016.45 1016.40 1016.32 1016.21 1016.05 1015.83 1015.56 1015.25 1014.92 1014.57 1014.25 1013.97 1013.75 1013.61 1013.54 1013.53 1013.57 1013.63 1013.69 1013.72 1013.72 1013.68 1013.60 1013.51 1013.42 1013.35 1013.33 1013.36 1013.45 1013.59 1013.76 1013.96 1014.14 1014.30 1014.41
1016.56 1016.58 1016.61 1016.63 1016.65 1016.68 1016.70 1016.72 1016.74 1016.74 1016.71 1016.64 1016.51 1016.32 1016.07 1015.76 1015.41 1015.05 1014.70 1014.38 1014.13 1013.95 1013.85 1013.82 1013.85 1013.91 1013.98 1014.04 1014.06 1014.04 1013.98 1013.89 1013.80 1013.70 1013.64 1013.62 1013.65 1013.74 1013.86 1014.01 1014.16 1014.30 1014.39
1016.48 1016.52 1016.59 1016.65 1016.72 1016.80 1016.87 1016.95 1017.02 1017.08 1017.09 1017.07 1016.98 1016.81 1016.58 1016.28 1015.93 1015.56 1015.19 1014.85 1014.56 1014.35 1014.21 1014.16 1014.17 1014.23 1014.30 1014.38 1014.43 1014.43 1014.40 1014.33 1014.24 1014.13 1014.04 1013.98 1013.96 1013.98 1014.04 1014.13 1014.23 1014.33 1014.40
1016.44 1016.51 1016.60 1016.71 1016.82 1016.94 1017.07 1017.20 1017.32 1017.41 1017.47 1017.48 1017.42 1017.29 1017.08 1016.81 1016.47 1016.10 1015.72 1015.36 1015.06 1014.82 1014.66 1014.58 1014.57 1014.61 1014.69 1014.77 1014.83 1014.86 1014.85 1014.80 1014.71 1014.60 1014.49 1014.39 1014.32 1014.29 1014.29 1014.31 1014.36 1014.41 1014.44
1016.47 1016.56 1016.68 1016.82 1016.97 1017.13 1017.29 1017.45 1017.60 1017.72 1017.81 1017.85 1017.83 1017.73 1017.56 1017.31 1017.01 1016.66 1016.30 1015.95 1015.64 1015.40 1015.22 1015.12 1015.08 1015.11 1015.17 1015.24 1015.31 1015.34 1015.34 1015.29 1015.20 1015.09 1014.96 1014.83 1014.72 1014.64 1014.58 1014.55 1014.54 1014.54 1014.54
1016.57 1016.67 1016.81 1016.97 1017.14 1017.32 1017.50 1017.68 1017.85 1017.99 1018.10 1018.16 1018.17 1018.11 1017.98 1017.78 1017.53 1017.24 1016.93 1016.62 1016.33 1016.10 1015.92 1015.80 1015.75 1015.75 1015.78 1015.83 1015.87 1015.88 1015.87 1015.81 1015.72 1015.59 1015.45 1015.30 1015.15 1015.03 1014.93 1014.85 1014.79 1014.75 1014.70
1016.70 1016.82 1016.97 1017.14 1017.32 1017.50 1017.69 1017.87 1018.04 1018.19 1018.31 1018.39 1018.43 1018.41 1018.33 1018.21 1018.03 1017.81 1017.58 1017.33 1017.10 1016.90 1016.74 1016.63 1016.56 1016.53 1016.52 1016.52 1016.52 1016.50 1016.46 1016.37 1016.26 1016.11 1015.95 1015.78 1015.61 1015.46 1015.33 1015.21 1015.12 1015.03 1014.95
1016.84 1016.96 1017.11 1017.28 1017.46 1017.64 1017.82 1018.00 1018.16 1018.30 1018.43 1018.52 1018.59 1018.62 1018.61 1018.55 1018.47 1018.35 1018.21 1018.05 1017.90 1017.76 1017.63 1017.53 1017.46 1017.40 1017.35 1017.31 1017.25 1017.18 1017.09 1016.96 1016.82 1016.65 1016.47 1016.28 1016.10 1015.93 1015.78 1015.64 1015.52 1015.41 1015.30
1016.94 1017.05 1017.20 1017.37 1017.54 1017.72 1017.89 1018.05 1018.20 1018.34 1018.46 1018.57 1018.66 1018.74 1018.79 1018.82 1018.82 1018.80 1018.77 1018.71 1018.65 1018.58 1018.51 1018.43 1018.36 1018.28 1018.20 1018.10 1018.00 1017.87 1017.73 1017.56 1017.38 1017.19 1017.00 1016.80 1016.62 1016.44 1016.28 1016.13 1015.99 1015.86 1015.72
1016.98 1017.08 1017.22 1017.39 1017.56 1017.73 1017.89 1018.04 1018.18 1018.31 1018.44 1018.55 1018.67 1018.77 1018.88 1018.98 1019.07 1019.14 1019.21 1019.25 1019.28 1019.28 1019.26 1019.22 1019.16 1019.08 1018.97 1018.84 1018.69 1018.52 1018.33 1018.13 1017.92 1017.72 1017.51 1017.32 1017.14 1016.97 1016.81 1016.66 1016.51 1016.36 1016.21
1016.95 1017.04 1017.18 1017.34 1017.51 1017.68 1017.84 1017.98 1018.12 1018.25 1018.37 1018.49 1018.61 1018.75 1018.89 1019.04 1019.19 1019.34 1019.48 1019.60 1019.70 1019.77 1019.81 1019.81 1019.77 1019.69 1019.57 1019.42 1019.25 1019.05 1018.84 1018.62 1018.40 1018.19 1017.99 1017.80 1017.63 1017.48 1017.33 1017.18 1017.04 1016.89 1016.72
1016.86 1016.95 1017.08 1017.23 1017.40 1017.58 1017.74 1017.89 1018.03 1018.15 1018.28 1018.40 1018.53 1018.67 1018.83 1019.01 1019.19 1019.39 1019.58 1019.76 1019.91 1020.03 1020.11 1020.15 1020.14 1020.07 1019.97 1019.82 1019.64 1019.44 1019.22 1019.00 1018.79 1018.59 1018.40 1018.23 1018.08 1017.94 1017.81 1017.68 1017.54 1017.39 1017.22
1016.74 1016.81 1016.92 1017.08 1017.25 1017.43 1017.61 1017.77 1017.92 1018.05 1018.18 1018.30 1018.43 1018.57 1018.73 1018.91 1019.11 1019.32 1019.53 1019.74 1019.92 1020.08 1020.19 1020.26 1020.28 1020.24 1020.16 1020.03 1019.86 1019.68 1019.48 1019.28 1019.08 1018.90 1018.74 1018.59 1018.47 1018.35 1018.24 1018.13 1018.00 1017.86 1017.69
1016.58 1016.63 1016.73 1016.88 1017.06 1017.25 1017.44 1017.62 1017.78 1017.93 1018.06 1018.19 1018.32 1018.45 1018.61 1018.78 1018.97 1019.18 1019.39 1019.60 1019.80 1019.97 1020.11 1020.21 1020.25 1020.25 1020.20 1020.10 1019.97 1019.82 1019.65 1019.47 1019.31 1019.15 1019.02 1018.90 1018.79 1018.70 1018.61 1018.51 1018.40 1018.27 1018.12
Thickness
5682 5682 5681 5680 5679 5678 5679 5683 5687 5691 5693 5695 5695 5696 5696 5693 5691 5688 5687 5684 5683 5682 5682 5681 5680 5679 5678 5676 5674 5671 5669 5668 5666 5669 5672 5677 5679 5681 5682 5682 5685 5684 5684
5673 5673 5673 5672 5673 5674 5677 5682 5686 5687 5690 5692 5692 5691 5690 5688 5686 5684 5681 5679 5679 5677 5677 5677 5676 5676 5674 5673 5671 5669 5668 5667 5665 5664 5667 5670 5674 5678 5680 5681 5682 5683 5685
5667 5668 5668 5669 5671 5674 5677 5681 5683 5685 5686 5687 5688 5686 5685 5682 5681 5680 5678 5677 5675 5674 5673 5673 5673 5673 5671 5671 5669 5668 5667 5666 5664 5663 5664 5666 5668 5671 5673 5676 5679 5681 5682
5665 5666 5667 5669 5671 5674 5676 5678 5680 5682 5681 5683 5683 5682 5680 5679 5677 5676 5675 5673 5671 5671 5669 5669 5669 5669 5669 5668 5667 5666 5665 5664 5663 5662 5662 5663 5663 5665 5667 5670 5673 5677 5679
5663 5664 5665 5668 5670 5671 5672 5674 5675 5676 5677 5677 5677 5677 5676 5674 5673 5672 5670 5668 5667 5666 5665 5665 5664 5663 5661 5662 5663 5663 5662 5661 5660 5660 5660 5661 5661 5660 5662 5666 5667 5671 5675
5660 5660 5662 5664 5665 5666 5667 5668 5668 5668 5669 5670 5670 5669 5668 5668 5665 5661 5661 5663 5663 5662 5661 5661 5659 5656 5655 5653 5654 5655 5656 5658 5659 5658 5659 5659 5660 5660 5660 5660 5661 5662 5666
5656 5657 5658 5659 5659 5660 5660 5660 5659 5660 5660 5660 5660 5660 5660 5658 5654 5653 5652 5655 5657 5657 5657 5656 5654 5654 5651 5655 5652 5650 5652 5652 5653 5657 5657 5658 5658 5659 5658 5657 5657 5658 5659
5652 5653 5653 5653 5653 5653 5653 5652 5652 5653 5650 5649 5648 5649 5648 5646 5645 5646 5646 5649 5651 5651 5651 5652 5651 5651 5649 5651 5652 5653 5654 5654 5653 5654 5656 5656 5655 5655 5655 5654 5654 5653 5653
5647 5647 5647 5647 5646 5646 5645 5644 5643 5642 5640 5638 5636 5636 5636 5636 5635 5638 5639 5646 5645 5645 5645 5646 5646 5647 5642 5640 5643 5649 5650 5650 5647 5646 5646 5647 5647 5648 5648 5648 5647 5646 5645
5642 5642 5642 5641 5639 5638 5637 5636 5634 5633 5630 5629 5626 5625 5625 5626 5625 5628 5630 5637 5637 5638 5638 5640 5635 5636 5634 5633 5638 5643 5643 5645 5646 5645 5643 5643 5644 5644 5642 5644 5643 5642 5641
5639 5638 5637 5636 5634 5631 5630 5629 5627 5625 5623 5621 5619 5617 5616 5615 5616 5617 5619 5625 5627 5629 5630 5631 5632 5628 5627 5628 5631 5637 5637 5638 5641 5642 5642 5641 5641 5641 5640 5640 5640 5639 5637
5637 5635 5634 5632 5630 5628 5624 5621 5619 5617 5616 5614 5612 5610 5609 5609 5607 5608 5609 5612 5614 5619 5620 5622 5623 5621 5622 5624 5628 5629 5629 5630 5635 5635 5635 5634 5634 5634 5634 5634 5634 5634 5634
5638 5635 5633 5631 5627 5623 5619 5616 5612 5610 5608 5605 5603 5601 5601 5602 5602 5601 5602 5602 5604 5607 5609 5608 5611 5614 5617 5621 5622 5623 5625 5628 5629 5628 5628 5627 5627 5627 5627 5627 5628 5628 5628
5641 5638 5636 5633 5629 5623 5616 5612 5607 5603 5600 5598 5595 5594 5594 5595 5595 5595 5597 5598 5597 5599 5600 5600 5602 5606 5611 5613 5617 5620 5623 5624 5625 5624 5623 5622 5621 5621 5621 5620 5620 5620 5620
5645 5641 5638 5634 5629 5623 5616 5608 5603 5598 5592 5590 5590 5589 5588 5588 5586 5585 5588 5590 5591 5592 5593 5595 5599 5602 5605 5609 5612 5615 5617 5619 5620 5619 5619 5617 5616 5616 5614 5614 5613 5613 5613
5649 5644 5640 5636 5630 5626 5621 5612 5600 5596 5591 5588 5586 5585 5586 5582 5581 5581 5582 5582 5583 5585 5588 5590 5592 5595 5598 5602 5605 5608 5611 5612 5613 5614 5613 5613 5612 5611 5610 5608 5607 5606 5605
5651 5646 5641 5638 5633 5629 5624 5619 5612 5602 5595 5591 5588 5585 5583 5582 5581 5580 5579 5579 5580 5582 5583 5584 5586 5589 5593 5596 5599 5602 5603 5605 5607 5608 5607 5607 5606 5606 5604 5603 5601 5600 5598
5653 5646 5642 5638 5635 5631 5627 5622 5617 5612 5606 5600 5593 5587 5585 5583 5582 5581 5581 5582 5581 5581 5580 5581 5583 5586 5589 5593 5595 5597 5599 5600 5601 5602 5601 5601 5600 5599 5598 5596 5594 5590 5588
5654 5650 5645 5640 5637 5633 5628 5624 5620 5615 5608 5603 5601 5595 5590 5588 5586 5584 5585 5584 5582 5581 5581 5581 5583 5585 5587 5590 5592 5593 5595 5595 5596 5596 5595 5594 5594 5593 5591 5589 5587 5582 5579
5655 5647 5645 5643 5640 5636 5631 5628 5624 5618 5612 5607 5603 5600 5598 5596 5593 5590 5588 5587 5585 5584 5583 5583 5584 5585 5586 5588 5589 5590 5591 5591 5591 5591 5590 5590 5589 5588 5586 5584 5581 5578 5574
5658 5651 5644 5645 5642 5639 5635 5631 5627 5622 5617 5611 5606 5601 5599 5599 5597 5594 5593 5591 5589 5588 5587 5586 5585 5585 5586 5587 5588 5588 5589 5589 5588 5587 5587 5586 5586 5584 5582 5580 5576 5572 5568
5661 5657 5653 5649 5644 5641 5638 5634 5630 5626 5621 5616 5611 5607 5602 5603 5601 5599 5596 5594 5592 5590 5589 5588 5587 5585 5585 5586 5586 5587 5587 5586 5585 5585 5585 5585 5584 5582 5579 5576 5573 5568 5563
5663 5660 5656 5651 5647 5640 5639 5637 5633 5629 5625 5621 5617 5614 5610 5607 5605 5602 5600 5598 5595 5594 5591 5590 5588 5587 5586 5585 5585 5585 5586 5586 5584 5583 5583 5583 5582 5580 5577 5573 5568 5564 5560
5665 5662 5658 5655 5650 5647 5643 5640 5636 5632 5628 5624 5621 5618 5615 5611 5608 5605 5603 5601 5599 5596 5594 5592 5590 5589 5587 5587 5586 5586 5584 5583 5584 5583 5582 5581 5580 5577 5574 5570 5565 5560 5556
5667 5664 5661 5658 5654 5650 5646 5643 5639 5636 5631 5627 5624 5621 5619 5615 5612 5609 5606 5603 5601 5599 5596 5594 5592 5590 5589 5588 5587 5585 5582 5582 5581 5581 5581 5580 5577 5574 5571 5566 5562 5557 5553
5668 5666 5664 5661 5657 5653 5650 5646 5643 5639 5635 5631 5628 5625 5622 5619 5615 5611 5609 5606 5604 5601 5599 5597 5594 5592 5591 5589 5586 5584 5582 5581 5580 5579 5579 5577 5574 5571 5568 5565 5560 5556 5551